Other Surface Observations
Issued by NWS

Home | Current Version | Previous Version | Text Only | Print | Product List | Glossary On
Versions: 1 2 3 4 5 6 7 8 9 10 11 12 13 14 15 16 17 18 19 20 21 22 23 24 25 26 27 28 29 30 31 32 33 34 35 36 37 38 39 40 41 42 43 44 45 46 47 48 49 50
000
SXUS52 KTAE 222318
OSOTAE
OSOTAE
North Florida/South Alabama/Southwest Georgia Weather Roundup
National Weather Service Tallahassee Florida
600 PM EST SUN JAN 22 2017

Note: "fair" indicates few or no clouds below 12,000 feet with no
significant weather and/or obstructions to visibility.

!FLZ017-115-028-034-025-230000
...North Florida...

CITY           SKY/WX    TMP DP  RH WIND       PRES   REMARKS
TALLAHASSEE    PTCLDY    67  49  52 W23G37    29.38R
APALACHICOLA   CLEAR     66  51  58 W13G28    29.44R
PERRY          PTCLDY    69  65  86 SW18G26   29.39R HAZE
CROSS CITY     CLOUDY    70  66  88 SW16G28   29.43R FOG
JACKSONVILLE   LGT RAIN  75  70  84 S13       29.33F
$$

!FLZ112-006-005-002-011-230000
...Florida Panhandle...

CITY           SKY/WX    TMP DP  RH WIND       PRES   REMARKS
MARIANNA       CLEAR     64  48  56 W8G18     29.38R
BONIFAY        FAIR      62  48  60 SW5       29.39R
PANAMA CITY NW FAIR      65  46  50 SW24G33   29.39R
TYNDALL AFB    CLEAR     65  51  60 W24G37    29.43R
TYND DRONE APT FAIR      65  53  65 W15G29    29.44R
DE FUNIAK SPR  FAIR      63  42  47 W6        29.40R
EGLIN AFB      PTCLDY    65  47  51 W12G21    29.40R
DESTIN         CLEAR     67  52  58 W14G24    29.41R
HURLBURT       CLEAR     65  33  30 W15G25    29.39R
CRESTVIEW      CLEAR     64  42  44 W8        29.40R
PENSACOLA      PTCLDY    66  46  48 W14G24    29.39R
$$

!ALZ063-066-230000
...South Alabama...

CITY           SKY/WX    TMP DP  RH WIND       PRES   REMARKS
DOTHAN         CLEAR     60  48  64 W10G20    29.39R
OZARK CAIRNS   CLEAR     60  48  64 W8        29.36R
FT RUCKER HELI CLEAR     61  46  57 W9        29.35R
RUCKER HELI 3  NOT AVBL
RUCKER HELI 2  FAIR      61  47  59 VRB5        N/A
FLORALA APT    CLEAR     60  45  57 VRB3      29.40R
ANDALUSIA      CLEAR     63  46  54 W7        29.37R
TROY           CLEAR     57  49  74 W7        29.37R
EUFALA         FAIR      60  50  69 VRB3      29.32R
MOBILE         PTCLDY    62  38  40 SW10      29.40R
$$

!GAZ120>161-230000
...Southwest and South Central Georgia...

CITY           SKY/WX    TMP DP  RH WIND       PRES   REMARKS
THOMASVILLE    MOCLDY    68  61  77 W12G30    29.35R
BAINBRIDGE     CLEAR     63  52  67 W13G21    29.38R
MOODY AFB      CLEAR     70  64  82 SW18G24   29.29S
VALDOSTA       PTCLDY    69  66  90 SW10G23   29.32S
MOULTRIE       PTCLDY    64  59  82 W21G32    29.34R
BLAKELY        CLEAR     63  50  63 W13G23    29.37R
ALBANY         CLEAR     62  55  77 W9        29.34R
TIFTON         RAIN      68  67  98 W15G30    29.30R
FITZGERALD     FAIR      69  67  92 SW8       29.29S
CORDELE        MOCLDY    64  58  81 W25G37    29.30R
AMERICUS       FAIR      57  54  88 W13G21    29.32R
HOMERVILLE       N/A     68  68 100 W10       29.31F
$$

!GMZ750-755-770-775-230000
...Coastal and Buoy Obs...

STATION/POSITION TIME  TEMP    WIND        PRES    VSBY  WAVE
                       AIR SEA DIR/SP/G                  HT/PER
                 (UTC) (F)     (DEG/KT/KT) (MB)    (MI)  (FT/S)
KEATON BEACH     2300   68     250/ 27/ 31  995.9R
CEDAR KEY        2300   70     250/ 21/ 27  997.4R
C TOWER          2300   68     270/ 33/ 35  998.0R
APALACHICOLA BUO 2250   73 74  270/ 29/ 35  997.3R        12/ 9
PANAMA CITY BUOY 2250   71 75               997.6R        12/ 9
MOBILE BUOY      NOT AVBL
ORANGE BCH AL BU 2250   66 66  260/ 25/ 33  995.4R         7/ 8
$$




USA.gov is the U.S. government's official web portal to all federal, state and local government web resources and services.